Waarnemingen

Advertentie
Mijn weer
Semmerzake, België (6428): temperatuur & dauwpunt: 23.01.2020 17:00:00 - 29.01.2020 17:00:00 (CET)Semmerzake, België (6428): windsnelheid & windstoten: 23.01.2020 17:00:00 - 29.01.2020 17:00:00 (CET)Semmerzake, België (6428): windrichting: 23.01.2020 17:00:00 - 29.01.2020 17:00:00 (CET)Semmerzake, België (6428): luchtdruk: 23.01.2020 17:00:00 - 29.01.2020 17:00:00 (CET)Semmerzake, België (6428): zicht: 23.01.2020 17:00:00 - 29.01.2020 17:00:00 (CET)
Datum & Tijd tt [°C] td [°C] ff [km/u] ff [kn] fx [km/u] fx [kn] dd ppp [hPa] vv [km]
29.01.2020 17:00:00 7,1 1,5 11 6 22 12 WZW 1012,3 20
29.01.2020 16:00:00 7,6 0,8 14 8 - - W 1011,8 20
29.01.2020 15:00:00 7,9 1,0 14 8 32 18 W 1011,5 20
29.01.2020 14:00:00 7,7 1,1 18 10 36 19 W 1011,2 20
29.01.2020 13:00:00 7,8 1,6 22 12 - - W 1010,5 19
29.01.2020 12:00:00 6,6 1,5 18 10 32 18 W 1010,3 20
29.01.2020 11:00:00 5,5 1,3 14 8 29 16 W 1009,6 19
29.01.2020 10:00:00 4,5 0,7 18 10 - - WZW 1008,8 17
29.01.2020 09:00:00 2,3 0,2 7 4 18 10 ZW 1008,2 16
29.01.2020 08:00:00 2,2 0,2 11 6 25 14 ZW 1007,2 16
29.01.2020 07:00:00 2,3 0,3 11 6 - - ZW 1006,8 20
29.01.2020 06:00:00 3,0 0,5 11 6 22 12 ZW 1006,3 18
29.01.2020 05:00:00 2,8 0,5 11 6 25 14 ZW 1005,7 19
29.01.2020 04:00:00 2,8 0,4 14 8 - - WZW 1005,2 20
29.01.2020 03:00:00 3,1 0,7 14 8 32 18 WZW 1004,8 19
29.01.2020 02:00:00 3,7 0,9 18 10 32 18 WZW 1004,1 20
29.01.2020 01:00:00 4,0 1,4 14 8 - - WZW 1003,3 20
29.01.2020 00:00:00 4,4 1,6 14 8 29 16 WZW 1002,3 19
28.01.2020 23:00:00 4,0 1,8 14 8 29 16 ZW 1001,7 20
28.01.2020 22:00:00 3,4 1,7 18 10 - - ZW 1000,7 20
28.01.2020 21:00:00 3,4 1,7 22 12 36 19 ZW 1000,7 20
28.01.2020 20:00:00 3,5 1,3 22 12 47 25 ZW 1000,5 20
28.01.2020 19:00:00 4,9 0,8 18 10 - - ZW 1000,6 20
28.01.2020 18:00:00 5,8 0,3 18 10 36 19 ZW 1000,2 20
28.01.2020 17:00:00 6,4 -0,4 22 12 36 19 WZW 1000,0 19
28.01.2020 16:00:00 6,8 -0,8 18 10 - - WZW 999,8 20
28.01.2020 15:00:00 6,3 -1,0 18 10 43 23 WZW 999,4 20
28.01.2020 14:00:00 6,1 -0,3 22 12 40 21 W 998,8 20
28.01.2020 13:00:00 6,4 0,0 18 10 - - W 998,1 20
28.01.2020 12:00:00 5,8 0,0 25 14 47 25 WZW 997,2 20
28.01.2020 11:00:00 5,4 0,6 29 16 54 29 WZW 996,1 20
28.01.2020 10:00:00 4,6 1,6 25 14 - - WZW 994,5 20
28.01.2020 09:00:00 4,4 1,7 25 14 47 25 ZW 993,3 13
28.01.2020 08:00:00 4,3 1,8 22 12 50 27 ZW 992,2 20
28.01.2020 07:00:00 4,8 2,7 25 14 - - WZW 991,6 20
28.01.2020 06:00:00 4,6 2,7 36 19 65 35 ZW 991,2 16
28.01.2020 05:00:00 6,5 4,1 25 14 40 21 ZZW 991,1 20
28.01.2020 04:00:00 6,4 4,1 22 12 - - ZZW 992,8 20
28.01.2020 03:00:00 6,6 4,8 18 10 36 19 ZZW 993,8 20
28.01.2020 02:00:00 5,2 4,1 14 8 25 14 ZZW 994,7 20
28.01.2020 01:00:00 5,4 3,8 14 8 - - ZW 995,5 20
28.01.2020 00:00:00 6,6 5,2 22 12 36 19 ZW 995,3 8
27.01.2020 23:00:00 7,6 5,5 22 12 50 27 ZW 995,6 20
27.01.2020 22:00:00 8,1 6,2 29 16 - - ZW 995,5 20
27.01.2020 21:00:00 7,7 6,5 25 14 43 23 Z 995,5 7
27.01.2020 20:00:00 7,8 6,7 22 12 36 19 Z 997,3 8
27.01.2020 19:00:00 8,1 7,0 18 10 - - Z 998,9 10
27.01.2020 18:00:00 8,1 6,3 14 8 29 16 Z 1000,3 20
27.01.2020 17:00:00 8,8 6,5 22 12 36 19 ZZW 1001,7 20
27.01.2020 16:00:00 8,4 7,5 14 8 - - Z 1002,8 7
27.01.2020 15:00:00 8,6 7,4 18 10 32 18 ZZW 1003,7 18
27.01.2020 14:00:00 9,0 7,0 18 10 29 16 ZZW 1004,6 19
27.01.2020 13:00:00 8,6 6,8 18 10 - - ZZW 1005,6 20
27.01.2020 12:00:00 8,6 6,9 18 10 29 16 ZZW 1006,7 19
27.01.2020 11:00:00 8,3 6,8 18 10 29 16 ZZW 1007,1 20
27.01.2020 10:00:00 7,9 6,6 11 6 - - ZZW 1007,1 20
27.01.2020 09:00:00 8,0 6,7 14 8 22 12 Z 1007,2 20
27.01.2020 08:00:00 8,1 7,0 11 6 25 14 ZZW 1007,7 18
27.01.2020 07:00:00 8,3 7,0 18 10 - - ZZW 1008,0 19
27.01.2020 06:00:00 8,6 7,2 22 12 36 19 ZZW 1008,3 18
27.01.2020 05:00:00 8,8 7,2 25 14 43 23 ZZW 1008,6 19
27.01.2020 04:00:00 8,7 7,2 25 14 - - ZZW 1008,7 4,3
27.01.2020 03:00:00 8,3 7,3 29 16 47 25 ZZW 1009,2 4,6
27.01.2020 02:00:00 8,2 6,9 25 14 43 23 ZZW 1009,6 4,9
27.01.2020 01:00:00 8,0 6,7 22 12 - - ZZW 1010,2 9
27.01.2020 00:00:00 7,8 6,6 25 14 43 23 ZZW 1010,6 6
26.01.2020 23:00:00 7,8 5,6 25 14 43 23 Z 1011,1 8
26.01.2020 22:00:00 7,5 5,3 22 12 - - Z 1011,8 9
26.01.2020 21:00:00 7,4 5,3 25 14 40 21 Z 1012,5 10
26.01.2020 20:00:00 7,0 4,9 22 12 36 19 Z 1013,2 11
26.01.2020 19:00:00 6,7 4,7 18 10 - - ZZW 1013,2 11
26.01.2020 18:00:00 7,3 5,0 18 10 29 16 ZZW 1013,7 10
26.01.2020 17:00:00 7,9 6,0 14 8 36 19 ZZW 1013,7 8
26.01.2020 16:00:00 8,3 5,9 18 10 - - ZZW 1013,7 11
26.01.2020 15:00:00 8,6 5,8 18 10 32 18 ZZW 1013,8 11
26.01.2020 14:00:00 8,3 5,6 18 10 29 16 Z 1014,3 10
26.01.2020 13:00:00 8,2 5,5 14 8 - - ZZW 1015,1 11
26.01.2020 12:00:00 6,9 4,9 11 6 22 12 ZZW 1015,7 8
26.01.2020 11:00:00 6,1 4,2 14 8 22 12 Z 1016,2 8
26.01.2020 10:00:00 4,9 3,5 14 8 - - ZZW 1016,0 6
26.01.2020 09:00:00 4,3 3,1 14 8 25 14 ZZW 1016,2 5
26.01.2020 08:00:00 4,1 3,1 11 6 18 10 Z 1015,7 5
26.01.2020 07:00:00 4,8 3,5 11 6 - - Z 1015,8 7
26.01.2020 06:00:00 5,1 3,9 14 8 22 12 Z 1015,8 8
26.01.2020 05:00:00 4,0 3,7 7 4 11 6 Z 1016,2 7
26.01.2020 04:00:00 2,9 2,9 7 4 - - ZZO 1016,5 5
26.01.2020 03:00:00 2,7 2,7 7 4 14 8 ZZO 1017,1 5
26.01.2020 02:00:00 2,2 2,2 7 4 11 6 ZO 1017,6 2,8
26.01.2020 01:00:00 2,2 2,2 7 4 - - ZO 1018,2 0,7
26.01.2020 00:00:00 2,5 2,5 7 4 11 6 ZZO 1018,7 0,2
25.01.2020 23:00:00 2,7 2,7 4 2 14 8 N 1019,1 0,1
25.01.2020 22:00:00 2,7 2,7 4 2 - - N 1019,3 0,1
25.01.2020 21:00:00 2,7 2,7 7 4 11 6 ZO 1019,7 0,2
25.01.2020 20:00:00 2,7 2,7 7 4 18 10 ZZO 1020,2 0,3
25.01.2020 19:00:00 2,6 2,6 7 4 - - ZO 1020,2 0,2
25.01.2020 18:00:00 2,5 2,5 7 4 14 8 ZZO 1020,1 0,2
25.01.2020 17:00:00 2,5 2,5 7 4 14 8 ZO 1020,1 0,2
25.01.2020 16:00:00 2,1 2,1 7 4 - - ZZO 1020,6 0,5
25.01.2020 15:00:00 1,6 1,6 7 4 11 6 N 1021,0 0,6
25.01.2020 14:00:00 1,3 1,3 7 4 11 6 Z 1021,7 1,4
25.01.2020 13:00:00 0,8 0,8 7 4 - - Z 1022,5 1,0
25.01.2020 12:00:00 0,8 0,7 4 2 11 6 N 1023,0 0,3
25.01.2020 11:00:00 0,3 0,2 4 2 11 6 N 1023,1 1,6
25.01.2020 10:00:00 -0,1 -0,2 7 4 - - ZZW 1022,7 1,4
25.01.2020 09:00:00 -0,4 -1,0 4 2 7 4 N 1022,7 2,3
25.01.2020 08:00:00 -0,3 -1,1 4 2 7 4 N 1022,6 2,5
25.01.2020 07:00:00 -0,4 -1,2 7 4 - - N 1022,3 2,6
25.01.2020 06:00:00 -0,4 -1,0 7 4 11 6 Z 1022,3 2,3
25.01.2020 05:00:00 -0,3 -0,9 7 4 11 6 ZZW 1022,6 2,2
25.01.2020 04:00:00 -0,1 -1,0 4 2 - - N 1022,7 2,8
25.01.2020 03:00:00 0,0 -1,0 4 2 7 4 N 1023,1 3,5
25.01.2020 02:00:00 0,1 -0,6 4 2 11 6 N 1023,2 2,7
25.01.2020 01:00:00 -0,1 -0,6 7 4 - - N 1023,7 2,0
25.01.2020 00:00:00 0,0 -0,7 7 4 14 8 Z 1023,7 2,3
24.01.2020 23:00:00 0,3 -0,7 7 4 18 10 Z 1023,7 2,8
24.01.2020 22:00:00 0,4 -0,8 11 6 - - ZZW 1024,0 3,1
24.01.2020 21:00:00 0,6 -0,6 7 4 11 6 ZZW 1024,2 3,5
24.01.2020 20:00:00 1,0 0,0 4 2 11 6 N 1024,0 3,6
24.01.2020 19:00:00 1,2 0,0 4 2 - - N 1023,7 4,1
24.01.2020 18:00:00 1,5 0,4 4 2 11 6 N 1023,2 4,0
24.01.2020 17:00:00 1,7 0,7 11 6 14 8 Z 1023,0 3,5
24.01.2020 16:00:00 1,7 0,9 7 4 - - Z 1023,3 3,4
24.01.2020 15:00:00 1,6 0,7 4 2 11 6 N 1023,7 3,3
24.01.2020 14:00:00 1,2 0,7 7 4 14 8 Z 1024,2 2,9
24.01.2020 13:00:00 1,3 1,1 4 2 - - N 1025,0 1,8
24.01.2020 12:00:00 1,2 1,0 4 2 11 6 N 1025,2 2,1
24.01.2020 11:00:00 1,2 1,1 4 2 11 6 N 1025,0 2,2
24.01.2020 10:00:00 1,2 1,0 4 2 - - N 1024,7 1,9
24.01.2020 09:00:00 1,1 0,9 4 2 11 6 N 1024,5 2,1
24.01.2020 08:00:00 1,0 0,9 4 2 14 8 N 1024,5 2,5
24.01.2020 07:00:00 0,7 0,6 4 2 - - N 1024,5 2,6
24.01.2020 06:00:00 0,5 0,4 4 2 14 8 N 1024,5 2,4
24.01.2020 05:00:00 1,0 0,9 4 2 7 4 N 1025,0 1,7
24.01.2020 04:00:00 1,1 1,0 4 2 - - N 1025,2 2,5
24.01.2020 03:00:00 1,3 1,1 4 2 11 6 N 1025,9 2,4
24.01.2020 02:00:00 1,3 1,3 7 4 14 8 Z 1026,4 1,5
24.01.2020 01:00:00 1,7 1,6 7 4 - - ZZO 1026,9 0,8
24.01.2020 00:00:00 1,8 1,8 4 2 7 4 N 1026,9 0,8
23.01.2020 23:00:00 2,0 2,0 4 2 11 6 N 1027,0 1,5
23.01.2020 22:00:00 2,4 2,1 7 4 - - ONO 1027,2 1,5
23.01.2020 21:00:00 2,5 2,0 4 2 11 6 N 1027,5 2,0
23.01.2020 20:00:00 3,0 2,0 7 4 14 8 O 1027,9 2,9
23.01.2020 19:00:00 3,2 2,0 7 4 - - O 1027,7 4,2
23.01.2020 18:00:00 3,7 1,8 7 4 18 10 O 1028,2 6
23.01.2020 17:00:00 4,0 1,9 7 4 14 8 ONO 1028,7 6

tt = temperatuur
td = dauwpunt
ff = windsnelheid
fx = windstoten
dd = windrichting
ppp = luchtdruk
vv = zicht

Weerstations in de omgeving